Location: Julian California
(33.0790°N, 116.6010°W)
Time: 21:27:23
(UTC-08:00)

Daily predictions for brighter satellites

Satellite Brightness Start Highest point End
(mag) Time Altitude Azimuth Time Altitude Azimuth Time Altitude Azimuth
BREEZE M DEB (TANK) 3.5 17:00:56 10° WNW 17:03:56 58° SW 17:12:02 10° SE
Cosmos 2142 Rocket 4.5 17:00:16 10° N 17:06:20 65° E 17:12:25 10° SSE
Cosmos 1812 3.4 17:05:31 10° SSE 17:08:46 31° E 17:12:02 10° NNE
Helios 1B rocket 3.3 17:08:24 10° S 17:12:13 51° W 17:16:03 10° NNW
Cosmos 2237 Rocket 4.5 17:07:35 10° NW 17:12:23 30° WSW 17:17:10 10° SSW
NOSS 3-4 (A) 4.0 17:06:56 10° NNW 17:14:12 63° ENE 17:22:23 10° SE
NOSS 3-4 (C) 4.0 17:07:04 10° NNW 17:14:15 63° ENE 17:22:21 10° SE
APEX 3.3 17:11:32 10° S 17:14:36 36° ESE 17:17:23 10° NE
CZ-4B R/B 3.6 17:11:24 10° SSE 17:14:55 55° ENE 17:18:25 10° N
Cosmos 2151 3.0 17:12:35 10° N 17:16:52 85° W 17:21:06 10° S
Meteor 1-31 Rocket 2.6 17:16:33 10° SSE 17:20:11 66° ENE 17:23:51 10° N
Cosmos 2279 Rocket 4.1 17:14:16 10° N 17:20:30 84° W 17:26:42 10° S
USA 234 4.0 17:15:01 10° NNE 17:21:14 48° NW 17:27:26 10° WSW
Cosmos 1544 3.8 17:22:32 10° NNW 17:25:40 49° W 17:28:47 10° S
Tiangong -2.2 17:23:45 10° WNW 17:26:54 68° NNE 17:29:56 11° ESE
Meteosat 1 Rocket2 4.0 17:24:29 10° WSW 17:28:27 45° S 17:33:50 11° E
Cosmos 1092 Rocket 4.5 17:24:00 10° SSE 17:29:31 37° E 17:35:03 10° NNE
Cosmos 1782 3.7 17:27:10 10° SSE 17:30:30 28° E 17:33:50 10° NNE
Cosmos 2227 4.2 17:25:07 10° S 17:30:49 71° ESE 17:36:32 10° NNE
BREEZE-M DEB (TANK) 3.3 17:28:30 10° WNW 17:31:20 48° SW 17:33:35 10° SSE
USA 308 2.4 17:30:12 10° NNW 17:31:03 17° N 17:31:03 17° N
Cosmos 2263 Rocket 3.3 17:26:43 10° SW 17:31:56 42° WNW 17:37:12 10° N
Nadezhda 4 Rocket 3.9 17:26:20 10° S 17:32:30 82° E 17:38:38 10° N
Cosmos 1844 Rocket 3.4 17:28:26 10° SSE 17:33:16 32° ESE 17:37:28 13° NE
Lacrosse 4 Rocket 3.0 17:32:40 10° NNE 17:35:17 16° NE 17:35:17 16° NE
SKYMED 2 3.7 17:31:43 10° NNE 17:36:00 55° E 17:40:12 10° S
CZ-4B R/B 3.6 17:33:07 10° SSE 17:38:08 55° ENE 17:43:02 10° N
Cosmos 2251 Rocket 4.2 17:43:33 10° N 17:48:15 30° ENE 17:52:55 10° SE
COSMOS 2455 4.3 17:44:43 10° SE 17:48:19 17° ESE 17:48:39 17° E
Cosmos 1812 Rocket 3.5 17:46:52 10° S 17:51:10 83° W 17:55:30 10° N
Cosmos 407 Rocket 4.2 17:46:58 10° N 17:51:25 29° ENE 17:55:49 10° SE
Cosmos 2056 Rocket 4.2 17:47:38 10° SSE 17:52:25 35° E 17:55:06 22° NE
Cosmos 1603 4.4 17:48:54 10° N 17:53:48 29° ENE 17:56:48 18° ESE
ISS -1.8 17:51:29 10° NNW 17:53:05 16° NNE 17:53:05 16° NNE
Cosmos 1428 Rocket 4.4 17:48:49 10° S 17:55:06 79° E 18:01:24 10° N
Cosmos 1602 4.1 17:51:32 10° NNW 17:55:13 63° W 17:58:53 10° S
Cosmos 1666 3.8 17:53:30 10° NNW 17:56:51 42° W 18:00:11 10° SSW
Hubble Space Telescope 2.6 17:55:36 10° WSW 17:58:56 25° SSW 18:02:10 11° SE
Cosmos 1818 3.7 17:53:36 10° SSW 17:58:59 74° WNW 18:03:44 14° NNE
Cosmos 1627 Rocket 4.4 17:58:08 10° S 18:04:19 74° E 18:10:36 10° N
Cosmos 192 4.2 17:59:57 10° S 18:04:45 65° ESE 18:07:49 22° NNE
SL-16 R/B 3.8 18:01:48 10° NW 18:06:55 36° WSW 18:12:00 10° SSW
SL-08 R/B 3.3 18:09:00 10° N 18:13:35 78° WNW 18:18:13 10° SSW
Cosmos 44 3.8 18:09:57 10° NW 18:15:11 65° WSW 18:20:06 10° SSE
Meteor 2-9 4.5 18:10:12 10° N 18:15:35 69° E 18:21:03 10° SSE
Cosmos 1371 Rocket 3.9 18:11:12 10° S 18:16:18 63° ESE 18:18:36 32° NE
ADEOS 3.4 18:11:52 10° SSE 18:17:00 67° ENE 18:22:10 10° N
SEDSat Delta rocket 3.3 18:11:50 10° WSW 18:17:02 67° S 18:18:23 44° ESE
SME Rocket 4.1 18:19:06 34° ESE 18:20:44 44° ENE 18:27:16 10° N
Cosmos 1943 3.0 18:15:11 10° NNW 18:20:49 76° ENE 18:26:27 10° SSE
Cosmos 1933 3.6 18:16:52 10° SSW 18:20:49 67° W 18:23:30 20° N
COSMO-SKYMED 1 4.0 18:19:58 10° N 18:23:58 37° WNW 18:27:55 10° SW
Cosmos 1241 Rocket 4.4 18:19:31 10° SSW 18:25:55 72° ESE 18:28:40 36° NE
Timation 2 Rocket 3.8 18:20:43 10° SSW 18:26:41 87° WNW 18:30:15 26° NNE
ATLAS 2AS CENTAUR R/B 4.2 18:24:46 10° N 18:27:32 18° NNE 18:27:32 18° NNE
Cosmos 1420 Rocket 4.0 18:30:20 10° SSW 18:35:31 78° WNW 18:37:48 35° N
CZ-2C R/B 3.2 18:33:15 10° W 18:33:50 15° W 18:33:50 15° W
Cosmos 1844 3.8 18:30:32 10° SSW 18:36:18 78° WNW 18:39:05 32° NNE
Lacrosse 5 2.7 18:34:45 10° WSW 18:39:34 44° NW 18:41:06 34° N
Cosmos 1624 Rocket 4.0 18:35:54 10° SSW 18:41:07 77° WNW 18:42:48 44° N
ATLAS CENTAUR R/B 3.4 18:41:52 10° NNW 18:47:48 73° NE 18:56:56 17° SE
Cosmos 2221 3.0 18:43:45 10° SSW 18:47:54 56° W 18:48:11 54° WNW
Tiangong 1.3 19:01:26 10° WSW 19:02:05 12° WSW 19:02:05 12° WSW
Lacrosse 4 Rocket 3.7 19:09:54 10° NW 19:11:27 20° NW 19:11:27 20° NW
Cosmos 1844 Rocket 4.4 19:12:21 10° WSW 19:17:04 28° WNW 19:19:10 22° NNW
COSMOS 2455 3.8 19:27:43 10° SW 19:31:52 43° WSW 19:31:52 43° WSW
H-2A R/B 3.5 19:30:44 10° W 19:35:11 46° SSW 19:35:11 46° SSW
